Stations météo

réclame
Mon MeteoGroup
Maastricht, Pays-Bas (6380): Température de l'air & dewpoint: 15.06.2018 19:00:00 - 21.06.2018 19:00:00 (CEST)Maastricht, Pays-Bas (6380): Température de l'air 5cm: 15.06.2018 19:00:00 - 21.06.2018 19:00:00 (CEST)Maastricht, Pays-Bas (6380): Vitesse du vent & gusts: 15.06.2018 19:00:00 - 21.06.2018 19:00:00 (CEST)Maastricht, Pays-Bas (6380): Direction du vent: 15.06.2018 19:00:00 - 21.06.2018 19:00:00 (CEST)Maastricht, Pays-Bas (6380): reduced air pressure: 15.06.2018 19:00:00 - 21.06.2018 19:00:00 (CEST)Maastricht, Pays-Bas (6380): visibility: 15.06.2018 19:00:00 - 21.06.2018 19:00:00 (CEST)Maastricht, Pays-Bas (6380): Quantités de précipitations: 15.06.2018 19:00:00 - 21.06.2018 19:00:00 (CEST)
Date & Time tt [°C] td [°C] tt 5cm [°C] ff [km/h] ff [knt] fx [km/h] fx [knt] dd ppp [hPa] vv [km] rr [mm]
21.06.2018 19:00:00 15,0 5,6 16,0 16 9 36 19 NW 1024,2 10 0,0
21.06.2018 18:00:00 14,9 4,9 15,3 18 10 43 23 NNW 1023,9 10 0,0
21.06.2018 17:00:00 15,6 3,2 16,2 21 11 43 23 NW 1023,1 10 0,0
21.06.2018 16:00:00 17,8 4,8 18,1 21 11 47 25 NNW 1022,3 10 0,0
21.06.2018 15:00:00 17,4 4,1 17,3 22 12 43 23 WNW 1021,7 10 0,0
21.06.2018 14:00:00 18,1 4,9 18,8 16 9 47 25 NW 1020,9 10 0,0
21.06.2018 13:00:00 18,4 5,5 20,2 24 13 43 23 NW 1020,5 10 0,0
21.06.2018 12:00:00 17,5 7,0 18,5 24 13 40 21 WNW 1020,0 10 0,0
21.06.2018 11:00:00 15,9 10,3 16,4 22 12 40 21 WNW 1019,3 10 0,0
21.06.2018 10:00:00 16,0 11,8 16,3 24 13 40 21 NW 1018,3 10 0,0
21.06.2018 09:00:00 16,9 14,0 16,9 15 8 25 14 WNW 1017,1 10 0,0
21.06.2018 08:00:00 16,6 14,7 16,5 9 5 22 12 WSW 1016,4 10 0,0
21.06.2018 07:00:00 16,0 14,3 15,9 15 8 29 16 WSW 1016,1 10 0,0
21.06.2018 06:00:00 16,0 14,0 15,7 15 8 25 14 WSW 1016,0 10 0,0
21.06.2018 05:00:00 15,9 13,5 15,3 15 8 25 14 SW 1015,7 10 0,0
21.06.2018 04:00:00 15,9 13,9 15,0 15 8 18 10 SSW 1016,3 10 0,0
21.06.2018 03:00:00 16,0 13,6 14,4 11 6 14 8 SW 1016,8 10 0,0
21.06.2018 02:00:00 16,6 13,9 15,4 8 4 14 8 SW 1017,3 10 0,0
21.06.2018 01:00:00 18,2 14,2 15,3 9 5 11 6 SSW 1017,5 10 0,0
21.06.2018 00:00:00 19,2 14,2 17,2 8 4 11 6 SW 1017,8 10 0,0
20.06.2018 23:00:00 21,2 13,9 18,9 5 3 14 8 W 1018,0 10 0,0
20.06.2018 22:00:00 22,3 13,8 20,6 8 4 14 8 W 1017,8 10 0,0
20.06.2018 21:00:00 24,5 14,5 23,8 8 4 22 12 WSW 1017,6 10 0,0
20.06.2018 20:00:00 25,7 14,0 25,7 11 6 22 12 WSW 1017,9 10 0,0
20.06.2018 19:00:00 26,6 14,7 26,7 15 8 25 14 WSW 1018,3 10 0,0
20.06.2018 18:00:00 27,1 14,0 28,4 15 8 22 12 WSW 1018,7 10 0,0
20.06.2018 17:00:00 27,0 14,1 28,7 16 9 25 14 SW 1019,4 10 0,0
20.06.2018 16:00:00 26,9 15,0 28,6 15 8 25 14 WSW 1019,7 10 0,0
20.06.2018 15:00:00 26,1 16,2 28,1 15 8 22 12 WSW 1020,1 10 0,0
20.06.2018 14:00:00 25,5 16,5 27,5 11 6 25 14 W 1020,6 10 0,0
20.06.2018 13:00:00 25,0 17,1 27,0 16 9 25 14 WSW 1021,3 10 0,0
20.06.2018 12:00:00 23,2 16,0 24,7 15 8 29 16 WSW 1021,8 10 0,0
20.06.2018 11:00:00 21,8 16,0 22,4 13 7 25 14 WSW 1022,0 10 0,0
20.06.2018 10:00:00 20,7 15,5 21,7 13 7 22 12 SW 1022,2 10 0,0
20.06.2018 09:00:00 19,6 15,9 20,9 11 6 14 8 SW 1022,5 10 0,0
20.06.2018 08:00:00 18,6 15,7 18,8 5 3 14 8 SW 1022,6 10 0,0
20.06.2018 07:00:00 17,6 15,2 17,4 9 5 11 6 WSW 1022,7 10 0,0
20.06.2018 06:00:00 16,7 15,9 16,2 5 3 7 4 SSW 1022,7 10 0,0
20.06.2018 05:00:00 16,9 16,0 16,2 8 4 7 4 SSW 1022,9 10 0,0
20.06.2018 04:00:00 16,8 15,8 16,3 8 4 7 4 SSW 1023,3 10 0,0
20.06.2018 03:00:00 17,5 16,0 17,2 8 4 7 4 SW 1023,5 10 0,0
20.06.2018 02:00:00 17,8 16,2 17,4 2 1 14 8 - 1023,9 10 0,0
20.06.2018 01:00:00 18,5 15,9 18,0 9 5 14 8 SW 1024,2 10 0,0
20.06.2018 00:00:00 18,4 16,0 17,8 4 2 4 2 - 1024,3 10 0,0
19.06.2018 23:00:00 18,7 15,9 18,1 4 2 7 4 SSW 1024,4 10 0,0
19.06.2018 22:00:00 19,1 15,9 18,5 4 2 11 6 - 1024,3 10 0,0
19.06.2018 21:00:00 19,5 15,9 19,2 8 4 14 8 WSW 1024,0 10 0,0
19.06.2018 20:00:00 20,0 15,6 20,0 13 7 18 10 WSW 1024,1 10 0,0
19.06.2018 19:00:00 20,6 15,6 21,0 13 7 22 12 WSW 1024,3 10 0,0
19.06.2018 18:00:00 20,5 15,7 20,8 11 6 18 10 WSW 1024,3 34 0,0
19.06.2018 17:00:00 20,9 15,6 22,0 11 6 18 10 W 1024,5 10 0,0
19.06.2018 16:00:00 20,6 16,0 21,6 8 4 18 10 W 1024,8 10 0,0
19.06.2018 15:00:00 19,0 15,7 19,2 13 7 18 10 WSW 1024,9 10 0,0
19.06.2018 14:00:00 19,5 15,8 20,4 13 7 25 14 SW 1024,7 10 0,0
19.06.2018 13:00:00 19,3 16,1 20,5 15 8 22 12 WSW 1024,6 10 0,0
19.06.2018 12:00:00 18,1 15,4 18,5 9 5 18 10 WSW 1024,6 10 0,0
19.06.2018 11:00:00 17,8 15,1 17,8 13 7 25 14 WSW 1024,4 10 0,0
19.06.2018 10:00:00 17,1 15,2 16,8 15 8 22 12 SW 1024,2 10 0,0
19.06.2018 09:00:00 16,8 14,4 16,0 16 9 25 14 SW 1023,7 10 0,0
19.06.2018 08:00:00 16,1 14,3 15,8 16 9 22 12 SSW 1023,4 10 0,0
19.06.2018 07:00:00 15,0 13,5 14,7 18 10 25 14 SSW 1023,3 10 0,0
19.06.2018 06:00:00 14,5 12,9 14,2 21 11 25 14 SW 1023,1 10 0,0
19.06.2018 05:00:00 14,3 12,4 13,5 18 10 29 16 SW 1022,6 29 0,0
19.06.2018 04:00:00 14,0 11,9 12,9 18 10 25 14 SW 1022,3 21 0,0
19.06.2018 03:00:00 13,9 11,9 12,7 14 8 25 14 SW 1022,3 37 0,0
19.06.2018 02:00:00 14,7 12,0 13,4 14 8 22 12 SW 1022,1 42 0,0
19.06.2018 01:00:00 15,1 12,5 13,7 13 7 18 10 SW 1022,1 10 0,0
19.06.2018 00:00:00 15,6 12,7 14,0 11 6 18 10 SW 1022,1 10 0,0
18.06.2018 23:00:00 16,9 13,0 15,2 13 7 22 12 WSW 1021,8 10 0,0
18.06.2018 22:00:00 17,7 13,0 16,1 13 7 29 16 WSW 1021,1 10 0,0
18.06.2018 21:00:00 19,4 13,6 18,4 15 8 32 18 W 1020,9 10 0,0
18.06.2018 20:00:00 20,4 13,8 19,9 15 8 36 19 W 1020,6 10 0,0
18.06.2018 19:00:00 21,2 14,6 21,9 18 10 32 18 WSW 1020,3 10 0,0
18.06.2018 18:00:00 21,6 14,9 22,2 18 10 32 18 W 1020,3 10 0,0
18.06.2018 17:00:00 21,5 15,8 20,3 22 12 36 19 WSW 1020,7 10 0,0
18.06.2018 16:00:00 20,9 15,7 20,1 18 10 32 18 SW 1020,9 28 0,0
18.06.2018 15:00:00 20,8 15,6 19,6 18 10 32 18 SW 1020,8 10 0,0
18.06.2018 14:00:00 19,9 14,7 20,3 22 12 32 18 SW 1020,9 10 0,0
18.06.2018 13:00:00 19,4 14,2 19,1 18 10 36 19 WSW 1020,7 10 0,0
18.06.2018 12:00:00 19,1 13,7 18,5 21 11 36 19 SW 1020,6 10 0,0
18.06.2018 11:00:00 19,1 13,1 19,4 26 14 36 19 SW 1020,6 10 0,0
18.06.2018 10:00:00 18,9 13,0 19,2 21 11 36 19 SW 1020,4 10 0,0
18.06.2018 09:00:00 18,2 12,3 17,5 22 12 29 16 SW 1020,2 10 0,0
18.06.2018 08:00:00 17,2 12,1 16,5 22 12 25 14 SSW 1020,0 10 0,0
18.06.2018 07:00:00 16,1 11,6 15,1 16 9 25 14 SW 1020,2 10 0,0
18.06.2018 06:00:00 15,9 10,9 14,9 16 9 22 12 SW 1020,1 10 0,0
18.06.2018 05:00:00 15,3 11,5 14,4 11 6 18 10 SSW 1019,8 10 0,0
18.06.2018 04:00:00 15,1 11,7 14,2 11 6 14 8 SSW 1019,8 10 0,0
18.06.2018 03:00:00 15,2 11,4 14,4 11 6 14 8 S 1019,9 10 0,0
18.06.2018 02:00:00 15,1 10,8 14,2 11 6 14 8 SSW 1020,3 10 0,0
18.06.2018 01:00:00 15,2 10,0 13,9 11 6 14 8 SW 1020,4 10 0,0
18.06.2018 00:00:00 15,2 9,7 13,7 9 5 14 8 WSW 1020,4 10 0,0
17.06.2018 23:00:00 15,6 9,3 14,1 9 5 22 12 WSW 1020,2 10 0,0
17.06.2018 22:00:00 16,7 10,2 15,5 15 8 22 12 SW 1019,8 10 0,0
17.06.2018 21:00:00 16,9 10,7 15,9 13 7 22 12 SSW 1019,4 10 0,0
17.06.2018 20:00:00 17,2 10,1 16,5 13 7 22 12 SW 1019,4 10 0,0
17.06.2018 19:00:00 17,6 9,9 17,5 16 9 25 14 SW 1019,3 10 0,0
17.06.2018 18:00:00 17,2 9,5 17,4 16 9 32 18 WSW 1019,3 10 0,0
17.06.2018 17:00:00 16,9 9,3 17,0 21 11 32 18 SW 1019,3 10 0,0
17.06.2018 16:00:00 16,4 9,1 16,4 21 11 32 18 WSW 1019,4 10 0,0
17.06.2018 15:00:00 16,9 10,1 16,4 15 8 32 18 WSW 1019,0 10 0,0
17.06.2018 14:00:00 16,8 9,3 16,8 16 9 32 18 WSW 1018,8 10 0,0
17.06.2018 13:00:00 16,3 9,5 16,0 18 10 36 19 WSW 1018,6 10 0,0
17.06.2018 12:00:00 16,7 9,9 17,2 26 14 36 19 WSW 1018,3 10 0,0
17.06.2018 11:00:00 16,9 10,6 17,4 18 10 29 16 WSW 1018,0 10 0,0
17.06.2018 10:00:00 15,8 9,9 16,3 24 13 32 18 SW 1017,9 10 0,0
17.06.2018 09:00:00 15,7 10,6 15,7 21 11 29 16 WSW 1017,5 10 0,0
17.06.2018 08:00:00 14,7 10,5 14,5 22 12 29 16 SW 1017,1 10 0,0
17.06.2018 07:00:00 14,7 10,7 13,8 18 10 22 12 SW 1016,9 10 0,0
17.06.2018 06:00:00 14,5 10,7 13,0 15 8 22 12 SW 1016,8 10 0,0
17.06.2018 05:00:00 14,1 10,2 13,3 15 8 18 10 SW 1016,8 10 0,0
17.06.2018 04:00:00 14,2 10,1 12,9 13 7 14 8 SSW 1016,4 10 0,0
17.06.2018 03:00:00 13,6 10,1 11,8 13 7 18 10 SW 1016,5 10 0,0
17.06.2018 02:00:00 14,4 9,6 12,4 13 7 18 10 SW 1016,6 10 0,0
17.06.2018 01:00:00 14,4 9,8 12,4 9 5 14 8 WSW 1016,3 10 0,0
17.06.2018 00:00:00 15,4 10,3 12,9 9 5 14 8 WSW 1016,2 10 0,0
16.06.2018 23:00:00 16,2 10,9 14,0 5 3 18 10 WSW 1016,1 10 0,0
16.06.2018 22:00:00 17,6 10,7 15,7 8 4 22 12 WSW 1015,8 10 0,0
16.06.2018 21:00:00 18,6 11,4 17,1 11 6 22 12 WSW 1015,3 10 0,0
16.06.2018 20:00:00 19,4 11,8 18,4 15 8 29 16 W 1015,1 10 0,0
16.06.2018 19:00:00 20,6 11,8 20,2 15 8 29 16 W 1014,6 10 0,0
16.06.2018 18:00:00 21,8 13,4 22,0 15 8 29 16 WSW 1014,2 10 0,0
16.06.2018 17:00:00 20,6 14,4 20,0 15 8 29 16 WSW 1014,6 10 0,0
16.06.2018 16:00:00 22,3 13,7 22,4 22 12 32 18 SW 1014,2 10 0,0
16.06.2018 15:00:00 22,9 13,4 25,0 13 7 22 12 WSW 1014,6 10 0,0
16.06.2018 14:00:00 21,2 12,0 21,3 11 6 22 12 WSW 1015,0 10 0,0
16.06.2018 13:00:00 21,9 14,2 22,7 15 8 29 16 W 1015,6 10 0,0
16.06.2018 12:00:00 21,1 13,8 22,4 11 6 18 10 SW 1015,6 10 0,0
16.06.2018 11:00:00 20,2 13,0 22,0 8 4 14 8 S 1015,5 10 0,0
16.06.2018 10:00:00 17,8 12,2 18,4 11 6 14 8 SW 1015,9 10 0,0
16.06.2018 09:00:00 16,5 12,3 16,6 11 6 14 8 W 1016,0 10 0,0
16.06.2018 08:00:00 15,7 12,9 15,2 11 6 18 10 SW 1015,8 10 0,0
16.06.2018 07:00:00 14,0 12,4 13,1 14 8 18 10 SSW 1015,6 15 0,0
16.06.2018 06:00:00 13,1 11,8 12,0 11 6 14 8 SSW 1015,5 13 0,0
16.06.2018 05:00:00 13,1 11,8 12,1 11 6 14 8 SSW 1015,6 14 0,0
16.06.2018 04:00:00 13,0 11,5 12,0 11 6 14 8 SSW 1015,9 17 0,0
16.06.2018 03:00:00 13,3 11,5 12,0 11 6 18 10 SSW 1015,9 23 0,0
16.06.2018 02:00:00 13,6 11,0 12,0 11 6 11 6 SSW 1015,9 31 0,0
16.06.2018 01:00:00 14,8 11,5 11,2 11 6 14 8 SSW 1015,9 24 0,0
16.06.2018 00:00:00 15,3 11,3 11,4 8 4 7 4 S 1015,8 10 0,0
15.06.2018 23:00:00 16,2 11,2 12,3 5 3 7 4 S 1015,8 10 0,0
15.06.2018 22:00:00 18,1 11,5 14,8 4 2 4 2 WSW 1015,7 10 0,0
15.06.2018 21:00:00 21,4 11,0 19,5 5 3 11 6 W 1015,7 10 0,0
15.06.2018 20:00:00 21,8 10,8 20,9 8 4 14 8 W 1015,8 10 0,0
15.06.2018 19:00:00 22,5 11,0 22,5 11 6 18 10 WSW 1015,8 10 0,0

tt = Température de l'air
td = dewpoint
tt 5cm = Température de l'air 5cm
ff = Vitesse du vent
fx = gusts
dd = Direction du vent
ppp = reduced air pressure
vv = visibility
rr = Quantités de précipitations

stations d'obs. à proximité